EW7554 Weather Reports


time (UTC)temp
F
wind
direction
speed
knots
gust
knots
rain 1hr
in
rain 24hr
in
rain mn
in
humidity
%
barometer
mb
20260507094559 34 258 0.9 1.7 0.00 0.00 0.00 77 1015.0
20260507093100 34 257 0.9 2.6 0.00 0.00 0.00 75 1015.2
20260507091558 35 257 0.0 1.7 0.00 0.00 0.00 73 1015.2
20260507090053 35 257 0.0 1.7 0.00 0.00 0.00 71 1015.2
20260507084551 36 257 0.0 1.7 0.00 0.00 0.00 70 1015.1
20260507083050 36 257 0.9 2.6 0.00 0.00 0.00 70 1015.1
20260507081548 36 264 0.0 1.7 0.00 0.00 0.00 71 1015.2
20260507080046 37 264 0.0 2.6 0.00 0.00 0.00 70 1015.2
20260507074544 37 277 0.9 1.7 0.00 0.00 0.00 71 1015.3
20260507073042 37 277 0.9 2.6 0.00 0.00 0.00 72 1015.3
20260507071540 38 281 0.0 1.7 0.00 0.00 0.00 71 1015.5
20260507070037 38 292 0.9 1.7 0.00 0.00 0.00 67 1015.6
20260507064533 39 294 0.9 1.7 0.00 0.00 0.00 65 1015.7
20260507063035 39 294 0.9 1.7 0.00 0.00 0.00 63 1015.8
20260507061529 39 294 0.0 1.7 0.00 0.00 0.00 62 1016.0
20260507060038 40 294 0.0 1.7 0.00 0.00 0.00 60 1016.0
20260507054533 40 294 0.0 1.7 0.00 0.00 0.00 61 1016.1
20260507053024 40 294 0.9 1.7 0.00 0.00 0.00 60 1016.2
20260507051521 41 295 0.9 2.6 0.00 0.00 0.00 60 1016.2
20260507050019 41 298 0.0 2.6 0.00 0.00 0.00 59 1016.2
20260507044540 41 299 0.0 1.7 0.00 0.00 0.00 58 1016.4
20260507043018 41 299 0.0 0.9 0.00 0.00 0.00 60 1016.4
20260507041517 42 299 0.0 0.9 0.00 0.00 0.00 56 1016.5
20260507040016 41 299 0.0 0.9 0.00 0.00 0.00 55 1016.6
20260507034516 42 299 0.0 0.9 0.00 0.00 0.00 54 1016.6
20260507033016 42 299 0.0 0.9 0.00 0.00 0.00 54 1016.7
20260507031516 42 299 0.0 0.9 0.00 0.00 0.00 54 1016.8
20260507030017 42 299 0.0 0.9 0.00 0.00 0.00 53 1016.8
20260507024514 42 299 0.0 0.9 0.00 0.00 0.00 53 1016.9
20260507023013 41 299 0.0 1.7 0.00 0.00 0.00 52 1016.9
20260507021519 42 299 1.7 3.5 0.00 0.00 0.00 51 1016.9
20260507020013 42 290 0.9 3.5 0.00 0.00 0.00 51 1016.9
20260507014513 43 288 1.7 4.3 0.00 0.00 0.00 50 1016.8
20260507013012 43 270 0.9 6.1 0.00 0.00 0.00 49 1016.8
20260507011511 44 288 1.7 7.0 0.00 0.00 0.00 47 1016.9
20260507010011 45 302 3.5 9.6 0.00 0.00 0.00 46 1016.9
20260507004511 45 269 3.5 10.4 0.00 0.00 0.00 45 1017.0
20260507003017 46 240 2.6 13.0 0.00 0.00 0.00 44 1016.9
20260507001520 46 279 5.2 12.2 0.00 0.00 0.00 45 1017.1
20260507000012 45 254 3.5 10.4 0.00 0.00 0.00 46 1017.1
20260506234509 45 340 5.2 12.2 0.00 0.00 0.00 45 1017.1
20260506233007 45 288 6.1 10.4 0.00 0.00 0.00 45 1017.2
20260506231512 45 298 3.5 10.4 0.00 0.00 0.00 45 1017.2
20260506230006 45 312 3.5 13.0 0.00 0.00 0.00 46 1017.2
20260506224506 45 288 6.1 14.8 0.00 0.00 0.00 45 1017.2
20260506223005 45 307 6.1 13.9 0.00 0.00 0.00 46 1017.2
20260506221604 46 309 3.5 12.2 0.00 0.00 0.00 46 1017.3
20260506220003 45 315 5.2 11.3 0.00 0.00 0.00 47 1017.3
20260506214504 45 244 3.5 12.2 0.00 0.00 0.00 47 1017.5
20260506213004 44 279 7.8 15.6 0.00 0.00 0.00 47 1017.6
20260506211500 45 277 6.1 13.0 0.00 0.00 0.00 47 1017.6
20260506204628 45 238 2.6 8.7 0.00 0.00 0.00 50 1018.0
20260506203057 43 317 6.1 11.3 0.00 0.00 0.00 50 1018.0
20260506201557 44 331 3.5 11.3 0.00 0.00 0.00 52 1018.1
20260506200056 44 273 3.5 13.0 0.00 0.00 0.00 50 1018.1
20260506194604 43 306 5.2 8.7 0.00 0.00 0.00 51 1018.2
20260506193058 42 290 5.2 11.3 0.00 0.00 0.00 51 1018.2
20260506191554 42 276 6.1 12.2 0.00 0.00 0.00 51 1018.2
20260506190053 42 300 8.7 13.9 0.00 0.00 0.00 51 1018.3
20260506184553 43 283 4.3 11.3 0.00 0.00 0.00 51 1018.2
20260506183059 42 321 5.2 13.0 0.00 0.00 0.00 50 1018.2
20260506181551 42 250 6.1 11.3 0.00 0.00 0.00 50 1018.4
20260506180052 42 298 7.0 12.2 0.00 0.00 0.00 49 1018.2
20260506174549 42 277 5.2 13.9 0.00 0.00 0.00 51 1018.3
20260506173050 42 323 6.1 12.2 0.00 0.00 0.00 50 1018.4
20260506171554 42 309 5.2 12.2 0.00 0.00 0.00 51 1018.4
20260506170047 41 312 6.1 20.9 0.00 0.00 0.00 51 1018.7
20260506164544 41 317 7.8 16.5 0.00 0.00 0.00 51 1018.7
20260506163043 40 288 6.1 12.2 0.00 0.00 0.00 52 1018.7
20260506161539 40 292 6.1 13.0 0.00 0.00 0.00 52 1018.8
20260506160037 40 304 7.0 13.0 0.00 0.00 0.00 52 1018.6
20260506154537 40 288 6.1 13.9 0.00 0.00 0.00 52 1018.5
20260506153035 40 325 3.5 15.6 0.00 0.00 0.00 53 1018.5
20260506151537 40 293 4.3 11.3 0.00 0.00 0.00 53 1018.4
20260506150033 40 317 3.5 11.3 0.00 0.00 0.00 55 1018.5
20260506144530 39 289 5.2 9.6 0.00 0.00 0.00 55 1018.6
20260506143028 39 243 5.2 10.4 0.00 0.00 0.00 55 1018.5
20260506141528 39 293 3.5 11.3 0.00 0.00 0.00 55 1018.5
20260506140029 38 311 5.2 9.6 0.00 0.00 0.00 55 1018.4
20260506134525 38 268 6.1 11.3 0.00 0.00 0.00 56 1018.3
20260506133040 38 330 4.3 11.3 0.00 0.00 0.00 58 1018.3
20260506131529 38 283 3.5 11.3 0.00 0.00 0.00 59 1018.1
20260506130024 38 306 6.1 11.3 0.00 0.00 0.00 58 1017.9
20260506124520 38 298 7.0 11.3 0.00 0.00 0.00 58 1017.7
20260506123018 38 290 2.6 8.7 0.00 0.00 0.00 61 1017.6
20260506121514 37 315 2.6 5.2 0.00 0.00 0.00 62 1017.3
20260506120018 36 288 3.5 7.8 0.00 0.00 0.00 64 1017.2
20260506114506 35 306 2.6 5.2 0.00 0.00 0.00 67 1016.8
20260506113001 34 293 0.9 3.5 0.00 0.00 0.00 71 1016.6
20260506111607 33 293 0.9 2.6 0.00 0.00 0.00 72 1016.5
20260506110058 32 285 1.7 3.5 0.00 0.00 0.00 73 1016.7
20260506104559 32 277 0.0 2.6 0.00 0.00 0.00 72 1016.8
20260506103100 32 294 0.0 1.7 0.00 0.00 0.00 70 1016.8
20260506101552 33 295 0.0 1.7 0.00 0.00 0.00 69 1016.4
20260506100053 34 295 0.0 2.6 0.00 0.00 0.00 67 1016.3